Tracking 19212 objects as of 17-Jul-2018
HD Live streaming from Space Station
objects crossing your sky now

USA 43

Track USA 43 now!
USA 43 is classified as:


NORAD ID: 20202
Int'l Code: 1989-069A
Perigee: 36,209.8 km
Apogee: 36,325.8 km
Inclination: 15.3 °
Period: 1,460.4 minutes
Semi major axis: 42638 km
RCS: Unknown
Launch date: September 4, 1989
Source: United States (US)
Launch site: AIR FORCE EASTERN TEST RANGE (AFETR)
aabbcc
Your satellite tracking list
Your tracking list is empty




NASA's NSSDC Master Catalog

Two Line Element Set (TLE):
1 20202U 89069A   18129.59635315 0.00000000  00000-0  00000-0 0    09
2 20202  15.3427   0.4662 0013606 202.9939 156.9556  0.98604282    04
Source of the keplerian elements: McCants